TimeCDT,TemperatureF,Dew PointF,Humidity,Sea Level PressureIn,VisibilityMPH,Wind Direction,Wind SpeedMPH,Gust SpeedMPH,PrecipitationIn,Events,Conditions,WindDirDegrees,DateUTC
12:15 AM,75.2,73.4,94,29.94,3.0,Calm,Calm,-,N/A,,Clear,0,2013-09-09 05:15:00
12:35 AM,73.4,73.4,100,29.94,4.0,Calm,Calm,-,N/A,,Partly Cloudy,0,2013-09-09 05:35:00
12:55 AM,73.4,73.4,100,29.94,3.0,Calm,Calm,-,N/A,,Partly Cloudy,0,2013-09-09 05:55:00
1:15 AM,75.2,73.4,94,29.94,4.0,Calm,Calm,-,N/A,,Clear,0,2013-09-09 06:15:00
1:35 AM,73.4,71.6,94,29.94,4.0,Calm,Calm,-,N/A,,Clear,0,2013-09-09 06:35:00
1:55 AM,73.4,71.6,94,29.93,3.0,Calm,Calm,-,N/A,,Clear,0,2013-09-09 06:55:00
2:15 AM,71.6,69.8,94,29.93,3.0,NE,3.5,-,N/A,,Clear,40,2013-09-09 07:15:00
2:35 AM,73.4,73.4,100,29.93,3.0,Calm,Calm,-,N/A,,Clear,0,2013-09-09 07:35:00
2:55 AM,73.4,73.4,100,29.93,3.0,Calm,Calm,-,N/A,,Clear,0,2013-09-09 07:55:00
3:15 AM,73.4,71.6,94,29.93,3.0,Calm,Calm,-,N/A,,Clear,0,2013-09-09 08:15:00
3:35 AM,71.6,69.8,94,29.93,3.0,SSE,3.5,-,N/A,,Clear,160,2013-09-09 08:35:00
3:55 AM,71.6,71.6,100,29.94,3.0,Calm,Calm,-,N/A,,Clear,0,2013-09-09 08:55:00
4:15 AM,73.4,71.6,94,29.94,4.0,SE,3.5,-,N/A,,Clear,130,2013-09-09 09:15:00
4:35 AM,73.4,71.6,94,29.94,4.0,SSE,3.5,-,N/A,,Clear,150,2013-09-09 09:35:00
4:55 AM,73.4,71.6,94,29.95,4.0,SSE,3.5,-,N/A,,Clear,150,2013-09-09 09:55:00
5:15 AM,73.4,69.8,88,29.95,4.0,SSE,3.5,-,N/A,,Clear,160,2013-09-09 10:15:00
5:35 AM,73.4,69.8,88,29.95,4.0,SSE,4.6,-,N/A,,Clear,160,2013-09-09 10:35:00
5:55 AM,73.4,69.8,88,29.95,4.0,Calm,Calm,-,N/A,,Clear,0,2013-09-09 10:55:00
6:15 AM,73.4,69.8,88,29.95,4.0,SW,3.5,-,N/A,,Clear,220,2013-09-09 11:15:00
6:35 AM,71.6,69.8,94,29.96,3.0,Calm,Calm,-,N/A,,Clear,0,2013-09-09 11:35:00
6:55 AM,71.6,69.8,94,29.97,4.0,NNW,3.5,-,N/A,,Clear,330,2013-09-09 11:55:00
7:15 AM,71.6,69.8,94,29.97,5.0,Calm,Calm,-,N/A,,Clear,0,2013-09-09 12:15:00
7:35 AM,73.4,71.6,94,29.98,5.0,Calm,Calm,-,N/A,,Clear,0,2013-09-09 12:35:00
7:55 AM,73.4,71.6,94,29.98,6.0,Calm,Calm,-,N/A,,Clear,0,2013-09-09 12:55:00
8:15 AM,73.4,71.6,94,29.98,6.0,SSW,4.6,-,N/A,,Clear,200,2013-09-09 13:15:00
8:35 AM,75.2,71.6,89,29.99,8.0,South,4.6,-,N/A,,Clear,190,2013-09-09 13:35:00
8:55 AM,78.8,73.4,83,29.99,8.0,South,4.6,-,N/A,,Clear,190,2013-09-09 13:55:00
9:15 AM,80.6,73.4,79,29.99,9.0,South,4.6,-,N/A,,Clear,180,2013-09-09 14:15:00
9:36 AM,80.6,73.4,79,30.00,9.0,SSE,5.8,-,N/A,,Partly Cloudy,160,2013-09-09 14:36:00
9:55 AM,82.4,73.4,74,30.00,9.0,SSW,3.5,-,N/A,,Partly Cloudy,210,2013-09-09 14:55:00
10:15 AM,84.2,73.4,70,30.00,9.0,South,3.5,-,N/A,,Clear,170,2013-09-09 15:15:00
10:35 AM,86.0,71.6,62,30.01,10.0,Calm,Calm,-,N/A,,Clear,0,2013-09-09 15:35:00
10:55 AM,87.8,73.4,62,30.00,10.0,West,3.5,-,N/A,,Clear,260,2013-09-09 15:55:00
11:15 AM,89.6,73.4,59,30.00,10.0,Calm,Calm,-,N/A,,Clear,0,2013-09-09 16:15:00
11:35 AM,91.4,73.4,55,30.00,10.0,West,3.5,-,N/A,,Clear,260,2013-09-09 16:35:00
11:56 AM,91.4,73.4,55,29.99,10.0,Calm,Calm,-,N/A,,Clear,0,2013-09-09 16:56:00
12:15 PM,93.2,69.8,46,29.99,10.0,NW,4.6,-,N/A,,Clear,320,2013-09-09 17:15:00
12:35 PM,93.2,69.8,46,29.98,10.0,NNE,5.8,-,N/A,,Clear,20,2013-09-09 17:35:00
12:55 PM,95.0,69.8,44,29.98,10.0,North,5.8,-,N/A,,Clear,10,2013-09-09 17:55:00
1:15 PM,96.8,71.6,44,29.98,10.0,North,5.8,-,N/A,,Clear,350,2013-09-09 18:15:00
1:35 PM,95.0,71.6,47,29.98,10.0,SSE,6.9,-,N/A,,Clear,150,2013-09-09 18:35:00
1:55 PM,93.2,73.4,52,29.97,10.0,SSE,8.1,-,N/A,,Scattered Clouds,160,2013-09-09 18:55:00
2:15 PM,91.4,73.4,55,29.98,7.0,NNE,12.7,19.6,0.01,,Mostly Cloudy,20,2013-09-09 19:15:00
2:35 PM,82.4,71.6,70,29.97,10.0,North,11.5,-,0.04,,Overcast,10,2013-09-09 19:35:00
2:55 PM,80.6,75.2,84,29.97,10.0,North,9.2,-,0.09,Thunderstorm,Thunderstorm,350,2013-09-09 19:55:00
3:15 PM,80.6,73.4,79,29.96,10.0,NNW,5.8,-,0.01,,Scattered Clouds,330,2013-09-09 20:15:00
3:35 PM,84.2,77.0,79,29.97,10.0,North,3.5,-,0.01,Thunderstorm,Thunderstorm,350,2013-09-09 20:35:00
3:55 PM,89.6,78.8,70,29.96,10.0,NW,3.5,-,0.01,Thunderstorm,Clear,320,2013-09-09 20:55:00
4:15 PM,89.6,75.2,62,29.96,10.0,Calm,Calm,-,N/A,,Clear,0,2013-09-09 21:15:00
4:36 PM,84.2,73.4,70,29.96,10.0,WNW,9.2,-,N/A,,Clear,300,2013-09-09 21:36:00
4:55 PM,84.2,73.4,70,29.96,10.0,NW,5.8,-,N/A,,Clear,320,2013-09-09 21:55:00
5:15 PM,82.4,73.4,74,29.96,10.0,NW,3.5,-,N/A,,Clear,310,2013-09-09 22:15:00
5:36 PM,84.2,75.2,74,29.95,10.0,Calm,Calm,-,N/A,,Clear,0,2013-09-09 22:36:00
5:55 PM,84.2,77.0,79,29.95,10.0,Calm,Calm,-,N/A,,Clear,0,2013-09-09 22:55:00
6:15 PM,86.0,77.0,74,29.95,10.0,Calm,Calm,-,N/A,,Clear,0,2013-09-09 23:15:00
6:35 PM,87.8,75.2,66,29.95,10.0,Calm,Calm,-,N/A,,Clear,0,2013-09-09 23:35:00
6:55 PM,84.2,78.8,84,29.95,10.0,ENE,4.6,-,N/A,,Clear,70,2013-09-09 23:55:00
7:15 PM,82.4,77.0,84,29.95,10.0,ESE,4.6,-,N/A,,Clear,110,2013-09-10 00:15:00
7:35 PM,80.6,75.2,84,29.95,10.0,ESE,3.5,-,N/A,,Clear,120,2013-09-10 00:35:00
7:55 PM,80.6,75.2,84,29.96,10.0,SE,5.8,-,N/A,,Clear,130,2013-09-10 00:55:00
8:15 PM,80.6,73.4,79,29.96,10.0,SE,5.8,-,N/A,,Clear,140,2013-09-10 01:15:00
8:35 PM,78.8,73.4,83,29.97,10.0,SE,5.8,-,N/A,,Clear,140,2013-09-10 01:35:00
8:55 PM,78.8,73.4,83,29.98,9.0,SSE,6.9,-,N/A,,Clear,150,2013-09-10 01:55:00
9:15 PM,78.8,73.4,83,29.98,10.0,SSE,6.9,-,N/A,,Clear,150,2013-09-10 02:15:00
9:35 PM,78.8,73.4,83,29.99,10.0,SSE,5.8,-,N/A,,Clear,150,2013-09-10 02:35:00
9:55 PM,77.0,73.4,89,29.99,10.0,SSE,6.9,-,N/A,,Clear,150,2013-09-10 02:55:00
10:15 PM,77.0,73.4,89,30.00,10.0,South,4.6,-,N/A,,Clear,170,2013-09-10 03:15:00
10:35 PM,77.0,73.4,89,30.00,10.0,South,4.6,-,N/A,,Clear,170,2013-09-10 03:35:00
10:55 PM,77.0,73.4,89,30.01,10.0,SSE,4.6,-,N/A,,Clear,160,2013-09-10 03:55:00
11:15 PM,77.0,73.4,89,30.01,10.0,South,3.5,-,N/A,,Clear,170,2013-09-10 04:15:00
11:35 PM,75.2,73.4,94,30.01,10.0,South,3.5,-,N/A,,Clear,190,2013-09-10 04:35:00
11:55 PM,75.2,71.6,89,30.01,10.0,Calm,Calm,-,N/A,,Clear,0,2013-09-10 04:55:00